{"data":{"norad_id":56070,"intl_designator":"2023-043AA","name":"ONEWEB-0609","alt_names":[],"object_type":"PAYLOAD","status":"ACTIVE","operator":null,"country":"UK","launch_date":"2023-03-26","launch_site_code":"SRILR","launch_vehicle":null,"mission":null,"orbit_class":"UNKNOWN","rcs_meters":null,"size_class":null,"mass_kg":null,"dimensions":null,"purposes":["comms"],"wikipedia_slug":null,"has_3d_model":false,"image_url":null,"decayed_at":null,"tle_current":{"epoch":"2026-09-20T04:14:50.972640Z","epoch_age_seconds":46217,"freshness":"FRESH","line1":"1 56070U 23043AA  26263.17697885  .00000072  00000+0  15726-3 0  9992","line2":"2 56070  87.8984 240.2674 0001928  82.6284 277.5065 13.15548290168925","mean_motion":13.1554829,"eccentricity":0.0001928,"inclination_deg":87.8984,"raan_deg":240.2674,"arg_perigee_deg":82.6284,"mean_anomaly_deg":277.5065,"bstar":0.00015726,"rev_number":16892,"period_min":109.46006398594,"perigee_km":1200.310359761,"apogee_km":1203.2331725812,"semimajor_km":7579.9087661711,"source":"CELESTRAK","updated_at":"2026-09-20T09:00:44.791590Z"}}}